Regional Weather Roundup
Issued by NWS

Home | Current Version | Previous Version | Text Only | Print | Product List | Glossary On
Versions: 1 2 3 4 5 6 7 8 9 10 11 12 13 14 15 16 17 18 19 20 21 22 23 24 25 26 27 28 29 30 31 32 33 34 35 36 37 38 39 40 41 42 43 44 45 46 47 48 49 50
050
ASUS44 KFWD 060215
RWRTX
NORTH TEXAS HOURLY WEATHER ROUNDUP
NATIONAL WEATHER SERVICE FORT WORTH TX
900 PM CDT THU MAY 05 2016

NOTE: "FAIR" INDICATES FEW OR NO CLOUDS BELOW 12,000 FEET WITH NO
SIGNIFICANT WEATHER AND/OR OBSTRUCTIONS TO VISIBILITY.

TXZ118-119-060300-
DALLAS/FORT WORTH METROPLEX

CITY           SKY/WX    TMP DP  RH WIND       PRES   REMARKS
DFW AIRPORT    PTCLDY    73  45  36 N6        30.00R
DALLAS LOVE    PTCLDY    73  46  38 N6        30.00R
FTW MEACHAM    CLEAR     76  47  35 NE6       30.00R
DAL-EXECUTIVE  PTCLDY    69  47  45 N5        30.00R
FTW-ALLIANCE   PTCLDY    68  51  54 CALM      30.01R
FTW-NAS-JRB    CLEAR     75  52  44 NE3       30.01R
FTW-SPINKS     CLEAR     68  49  50 CALM      30.02R
ARLINGTON      PTCLDY    66  54  65 CALM      30.00R
GRAND PRAIRIE  CLEAR     72  45  36 N3        30.02R
ADDISON        CLEAR     75  48  38 NW3       30.01R
MESQUITE       CLEAR     71  48  45 CALM      30.00R
LANCASTER      PTCLDY    68  49  49 CALM      30.01R
$$

TXZ091>094-102>105-117-120-121-131>134-060300-
NORTH CENTRAL TEXAS

CITY           SKY/WX    TMP DP  RH WIND       PRES   REMARKS
SHRMAN/DENISON CLEAR     66  48  51 CALM      30.03R
GAINESVILLE    CLEAR     67  51  54 N3        30.04R
BOWIE          CLEAR     65  56  71 CALM      30.03R
BRIDGEPORT     CLEAR     62  55  79 CALM      30.04R
DECATUR        CLEAR     72  47  41 NE3       30.03R
DENTON         CLEAR     68  53  58 N3        30.01R
MCKINNEY       CLEAR     71  50  47 CALM      30.01R
GREENVILLE     CLEAR     64  54  68 CALM      30.00S
ROCKWALL       CLEAR     69  51  51 CALM      30.00R
TERRELL        CLEAR     70  49  47 CALM      30.01R
WAXAHACHIE     CLEAR     69  47  45 N3        30.02R
CLEBURNE       CLOUDY    73  48  40 CALM      30.03R
GRANBURY       CLEAR     73  53  49 CALM      30.03R HAZE
$$

TXZ083>090-098>101-113>116-127>130-139>142-154-155-060300-
WESTERN NORTH TEXAS

CITY           SKY/WX    TMP DP  RH WIND       PRES   REMARKS
WICHITA FALLS  PTCLDY    71  51  49 E8        30.02R
WF-KICKAPOO    HAZE      73  49  42 E5        30.03S VSB 1/4
ABILENE        NOT AVBL
ABILENE-DYESS  CLOUDY    74  55  50 E7        30.02R
BRECKENRIDGE   CLOUDY    74  52  45 E7        30.02R
GRAHAM         CLEAR     71  54  54 E3        30.01R
MINERAL WELLS  CLEAR     73  48  41 NE5       30.01R
STEPHENVILLE   CLOUDY    73  54  49 CALM      30.06R
COMANCHE       CLOUDY    71  58  63 CALM      30.04R
BROWNWOOD      CLOUDY    68  57  68 CALM      30.04R
COLEMAN        CLOUDY    73  53  48 CALM      30.05R
$$

TXZ143>147-156>162-174-175-060300-
CENTRAL TEXAS

CITY           SKY/WX    TMP DP  RH WIND       PRES   REMARKS
WACO           CLEAR     66  53  63 CALM      30.00R
WACO-TSTC      CLEAR     64  55  72 CALM      30.00R
WACO-MCGREGOR  CLEAR     73  56  54 N6        30.01R
HILLSBORO      CLOUDY    67  49  52 NE5       30.01R
CORSICANA      CLEAR     70  52  52 CALM      30.01R
HEARNE         CLOUDY    66  57  71 CALM      30.00R
TEMPLE         CLOUDY    71  56  58 N3        30.01R
KILLEEN        CLOUDY    73  56  56 CALM      30.01R
KILLEEN-SKYLRK CLOUDY    72  59  63 CALM      30.02R
FORT HOOD      LGT RAIN  73  55  53 E5        30.00R
GATESVILLE     CLOUDY    72  55  56 MISG      30.04R
HAMILTON       CLOUDY    72  56  58 MISG      30.04R
LAMPASAS       CLOUDY    74  57  56 CALM      30.03R
$$

TXZ095>097-106>112-122>126-135>138-148>153-164>167-060300-
EAST TEXAS

CITY           SKY/WX    TMP DP  RH WIND       PRES   REMARKS
PARIS          CLEAR     70  45  40 N7        30.01R
SULPHUR SPRNGS CLEAR     70  54  56 CALM      30.02R
MOUNT PLEASANT CLEAR     69  51  52 CALM      30.01R
MINEOLA        CLEAR     64  54  68 CALM      30.00R
TYLER          CLEAR     68  49  50 CALM      29.99R
LONGVIEW       CLEAR     66  51  58 CALM      29.98R
MARSHALL       CLEAR     63  53  72 CALM      30.00R
PALESTINE      CLEAR     65  55  69 CALM      30.00R
JACKSONVILLE   CLEAR     70  46  42 CALM      30.01R
HENDERSON      CLEAR     64  53  67 CALM      30.00R
NACOGDOCHES    CLEAR     63  52  67 CALM      29.98R
LUFKIN         CLEAR     63  54  72 CALM      29.98R
$$

SUPPLEMENTAL OBSERVATIONS (CENTRAL)

CITY           SKY/WX    TMP DP  RH WIND       PRES   REMARKS
LAKE TEXOMA      N/A     72  50  46 NE3         N/A
CADDO GRASSLND   N/A     63  55  77 E1          N/A
PAT MAYSE LAKE   N/A     66  41  39 N5          N/A
GREENVILLE       N/A     68  50  52 VRB2        N/A
CEDAR HILL       N/A     64  48  55 CALM        N/A
LAKE LIMESTONE   N/A     64  57  77 NE1         N/A
MCGREGOR         N/A     68  54  60 NE1         N/A
TEMPLE           N/A     75  52  43 N1          N/A
$$

SUPPLEMENTAL OBSERVATIONS (WEST)

CITY           SKY/WX    TMP DP  RH WIND       PRES   REMARKS
MILLERS CREEK    N/A     70  52  52 SE7         N/A
POSSUM KINGDOM   N/A     73  52  46 E6          N/A
LBJ GRASSLAND    N/A     68  48  49 NE1         N/A
GRANBURY         N/A     72  52  49 S2          N/A
COMANCHE         N/A     72  57  60 SE3         N/A
HAMBY            N/A     70  54  56 SE5         N/A
IVIE RESERVOIR   N/A     73  50  43 E8          N/A
COLORADO BEND    N/A     72  52  49 CALM        N/A
$$

SUPPLEMENTAL OBSERVATIONS (EAST)

CITY           SKY/WX    TMP DP  RH WIND       PRES   REMARKS
CLARKSVILLE      N/A     70  48  46 N3          N/A
TEXARKANA        N/A     61  54  77 CALM        N/A
LINDEN           N/A     66  52  59 CALM        N/A
CADDO LAKE       N/A     55  52  88 CALM        N/A
GILMER           N/A     63  52  67 CALM        N/A
HENDERSON        N/A     63  52  67 CALM        N/A
LUFKIN           N/A     63  55  77 MISG        N/A
N SABINE NF      N/A     63  54  72 MISG        N/A
S SABINE NF      N/A     61  55  82 CALM        N/A
$$

SUPPLEMENTAL OBSERVATIONS ARE A COLLECTION OF AUTOMATED INSTRUMENTS
THAT ARE MAINTAINED BY A VARIETY OF FEDERAL AND STATE AGENCIES.
CERTAIN ELEMENTS...SUCH AS HUMIDITY VALUES AND SUSTAINED WIND
SPEEDS...MAY BE APPROXIMATED.





USA.gov is the U.S. government's official web portal to all federal, state and local government web resources and services.